Hourly Data Report for November 22, 2018

TORONTO CITY
ONTARIO
Current Station Operator: ECCC - MSC

43°40'00.000" N
79°24'00.000" W
112.50 m
6158355
71508
XTO

Download Data

Hourly Data (November 2018)
Hourly Data Report for November 22, 2018
TIME
LST
Temp Definition
°C
Dew Point Definition
°C
Rel Hum Definition
%
Precip. Amount Definition
mm

Wind Dir Definition
10's deg

Wind Spd Definition
km/h
Visibility Definition
km
Stn Press Definition
kPa
Hmdx Definition


Wind Chill Definition


Weather Definition


00:00 -11.4 -18.8 54 0.0 LegendMM LegendMM   101.78     LegendNANA
01:00 -11.9 -18.6 58 0.0 LegendMM LegendMM   101.77     LegendNANA
02:00 -12.2 -19.3 56 0.0 LegendMM LegendMM   101.79     LegendNANA
03:00 -12.1 -18.6 58 0.0 LegendMM LegendMM   101.82     LegendNANA
04:00 -11.9 -17.8 61 0.0 LegendMM LegendMM   101.83     LegendNANA
05:00 -11.9 -17.3 64 0.0 LegendMM LegendMM   101.89     LegendNANA
06:00 -11.5 -16.6 66 0.0 LegendMM LegendMM   101.96     LegendNANA
07:00 -10.7 -15.8 66 0.0 LegendMM LegendMM   102.05     LegendNANA
08:00 -10.1 -15.7 64 0.0 LegendMM LegendMM   102.12     LegendNANA
09:00 -9.0 -16.8 53 0.0 LegendMM LegendMM   102.19     LegendNANA
10:00 -8.6 -15.9 55 0.0 LegendMM LegendMM   102.26     LegendNANA
11:00 -8.3 -16.3 53 0.0 LegendMM LegendMM   102.28     LegendNANA
12:00 -7.9 -19.0 40 0.0 LegendMM LegendMM   102.25     LegendNANA
13:00 -6.9 -20.4 33 0.0 LegendMM LegendMM   102.21     LegendNANA
14:00 -6.4 -20.0 33 0.0 LegendMM LegendMM   102.15     LegendNANA
15:00 -5.9 -20.5 31 0.0 LegendMM LegendMM   102.14     LegendNANA
16:00 -6.0 -21.7 28 0.0 LegendMM LegendMM   102.13     LegendNANA
17:00 -6.4 -17.9 39 0.0 LegendMM LegendMM   102.15     LegendNANA
18:00 -6.4 -16.7 44 0.0 LegendMM LegendMM   102.16     LegendNANA
19:00 -6.4 -15.7 48 0.0 LegendMM LegendMM   102.12     LegendNANA
20:00 -6.2 -16.2 45 0.0 LegendMM LegendMM   102.10     LegendNANA
21:00 -5.8 -15.8 45 0.0 LegendMM LegendMM   102.09     LegendNANA
22:00 -5.7 -16.1 44 0.0 LegendMM LegendMM   102.09     LegendNANA
23:00 -5.6 -18.5 35 0.0 LegendMM LegendMM   102.05     LegendNANA

Notes on Data Quality.

Legend

  • E = Estimated
  • M = Missing
  • NA = Not Available*
  • [empty] = Indicates an unobserved value
Date modified: